| time (UTC) | temp C | wind direction | speed KPH | gust KPH | rain 1hr cm | rain 24hr cm | rain mn cm | humidity % | barometer mb |
| 20260506145958 | 10 | 297 | 4.8 | 9.7 | 0.00 | 0.00 | 0.00 | 50 | 1011.6 |
| 20260506145457 | 11 | 295 | 1.6 | 6.4 | 0.00 | 0.00 | 0.00 | 48 | 1011.6 |
| 20260506144957 | 10 | 306 | 3.2 | 6.4 | 0.00 | 0.00 | 0.00 | 50 | 1011.5 |
| 20260506144458 | 9 | 134 | 3.2 | 6.4 | 0.00 | 0.00 | 0.00 | 48 | 1011.5 |
| 20260506143958 | 10 | 55 | 3.2 | 8.0 | 0.00 | 0.00 | 0.00 | 53 | 1011.2 |
| 20260506143457 | 9 | 101 | 1.6 | 4.8 | 0.00 | 0.00 | 0.00 | 57 | 1011.3 |
| 20260506135457 | 8 | 105 | 1.6 | 8.0 | 0.00 | 0.00 | 0.00 | 67 | 1011.3 |
| 20260506134957 | 8 | 61 | 3.2 | 8.0 | 0.00 | 0.00 | 0.00 | 66 | 1011.2 |
| 20260506134457 | 7 | 132 | 3.2 | 8.0 | 0.00 | 0.00 | 0.00 | 68 | 1011.1 |
| 20260506133957 | 7 | 68 | 4.8 | 8.0 | 0.00 | 0.00 | 0.00 | 67 | 1011.0 |
| 20260506133458 | 7 | 91 | 1.6 | 6.4 | 0.00 | 0.00 | 0.00 | 69 | 1011.0 |
| 20260506132957 | 7 | 316 | 1.6 | 9.7 | 0.00 | 0.00 | 0.00 | 68 | 1011.1 |
| 20260506132458 | 7 | 338 | 1.6 | 8.0 | 0.00 | 0.00 | 0.00 | 69 | 1011.0 |
| 20260506131957 | 7 | 95 | 3.2 | 8.0 | 0.00 | 0.00 | 0.00 | 69 | 1011.0 |
| 20260506131457 | 6 | 73 | 4.8 | 8.0 | 0.00 | 0.00 | 0.00 | 69 | 1011.1 |
| 20260506130958 | 6 | 45 | 3.2 | 8.0 | 0.00 | 0.00 | 0.00 | 70 | 1011.2 |
| 20260506130457 | 6 | 29 | 1.6 | 8.0 | 0.00 | 0.00 | 0.00 | 70 | 1011.3 |
| 20260506125957 | 6 | 77 | 3.2 | 8.0 | 0.00 | 0.00 | 0.00 | 71 | 1011.3 |
| 20260506125457 | 6 | 76 | 3.2 | 8.0 | 0.00 | 0.00 | 0.00 | 71 | 1011.2 |
| 20260506121956 | 3 | 83 | 3.2 | 6.4 | 0.00 | 0.00 | 0.00 | 80 | 1010.9 |
| 20260506121456 | 2 | 351 | 0.0 | 6.4 | 0.00 | 0.00 | 0.00 | 81 | 1010.8 |
| 20260506120957 | 2 | 49 | 1.6 | 8.0 | 0.00 | 0.00 | 0.00 | 81 | 1010.7 |
| 20260506120456 | 2 | 73 | 1.6 | 8.0 | 0.00 | 0.00 | 0.00 | 82 | 1010.6 |
| 20260506115957 | 2 | 67 | 3.2 | 6.4 | 0.00 | 0.00 | 0.00 | 82 | 1010.6 |
| 20260506115457 | 1 | 15 | 1.6 | 4.8 | 0.00 | 0.00 | 0.00 | 82 | 1010.4 |
| 20260506114957 | 1 | 41 | 0.0 | 3.2 | 0.00 | 0.00 | 0.00 | 81 | 1010.3 |
| 20260506114457 | 1 | 309 | 0.0 | 3.2 | 0.00 | 0.00 | 0.00 | 81 | 1010.2 |
| 20260506113957 | 1 | 309 | 0.0 | 3.2 | 0.00 | 0.00 | 0.00 | 81 | 1010.1 |
| 20260506113457 | 1 | 309 | 0.0 | 3.2 | 0.00 | 0.00 | 0.00 | 81 | 1009.9 |
| 20260506112959 | 1 | 313 | 0.0 | 1.6 | 0.00 | 0.00 | 0.00 | 80 | 1009.8 |
| 20260506112457 | 1 | 311 | 0.0 | 1.6 | 0.00 | 0.00 | 0.00 | 80 | 1009.9 |
| 20260506111956 | 1 | 316 | 0.0 | 1.6 | 0.00 | 0.00 | 0.00 | 79 | 1009.8 |
| 20260506111456 | 1 | 305 | 0.0 | 0.0 | 0.00 | 0.00 | 0.00 | 79 | 1009.6 |
| 20260506110956 | 1 | 305 | 0.0 | 3.2 | 0.00 | 0.00 | 0.00 | 79 | 1009.6 |
| 20260506110457 | 1 | 305 | 0.0 | 3.2 | 0.00 | 0.00 | 0.00 | 78 | 1009.6 |
| 20260506105957 | 1 | 291 | 0.0 | 1.6 | 0.00 | 0.00 | 0.00 | 78 | 1009.7 |
| 20260506105457 | 1 | 291 | 0.0 | 1.6 | 0.00 | 0.00 | 0.00 | 78 | 1009.8 |
| 20260506104956 | 1 | 291 | 0.0 | 3.2 | 0.00 | 0.00 | 0.00 | 78 | 1009.7 |
| 20260506104456 | 1 | 291 | 0.0 | 3.2 | 0.00 | 0.00 | 0.00 | 78 | 1009.7 |
| 20260506100458 | 2 | 311 | 0.0 | 1.6 | 0.00 | 0.00 | 0.00 | 75 | 1009.3 |
| 20260506095956 | 2 | 311 | 0.0 | 3.2 | 0.00 | 0.00 | 0.00 | 75 | 1009.2 |
| 20260506095457 | 2 | 311 | 1.6 | 3.2 | 0.00 | 0.00 | 0.00 | 74 | 1009.1 |
| 20260506094957 | 2 | 300 | 1.6 | 3.2 | 0.00 | 0.00 | 0.00 | 74 | 1009.1 |
| 20260506094456 | 2 | 286 | 0.0 | 4.8 | 0.00 | 0.00 | 0.00 | 74 | 1009.1 |
| 20260506093956 | 2 | 287 | 1.6 | 4.8 | 0.00 | 0.00 | 0.00 | 74 | 1009.0 |
| 20260506093457 | 2 | 303 | 1.6 | 4.8 | 0.00 | 0.00 | 0.00 | 74 | 1008.9 |
| 20260506092956 | 2 | 314 | 0.0 | 4.8 | 0.00 | 0.00 | 0.00 | 74 | 1008.7 |
| 20260506092457 | 2 | 315 | 0.0 | 4.8 | 0.00 | 0.00 | 0.00 | 73 | 1008.5 |
| 20260506091956 | 2 | 312 | 0.0 | 4.8 | 0.00 | 0.00 | 0.00 | 73 | 1008.5 |
| 20260506091457 | 3 | 311 | 1.6 | 3.2 | 0.00 | 0.00 | 0.00 | 73 | 1008.5 |
| 20260506090956 | 3 | 314 | 0.0 | 3.2 | 0.00 | 0.00 | 0.00 | 73 | 1008.5 |
| 20260506090456 | 3 | 287 | 0.0 | 1.6 | 0.00 | 0.00 | 0.00 | 73 | 1008.5 |
| 20260506085957 | 3 | 286 | 0.0 | 3.2 | 0.00 | 0.00 | 0.00 | 72 | 1008.4 |
| 20260506085456 | 3 | 286 | 0.0 | 3.2 | 0.00 | 0.00 | 0.00 | 73 | 1008.4 |
| 20260506084956 | 3 | 311 | 0.0 | 3.2 | 0.00 | 0.00 | 0.00 | 73 | 1008.5 |
| 20260506084457 | 3 | 311 | 0.0 | 3.2 | 0.00 | 0.00 | 0.00 | 73 | 1008.5 |
| 20260506083958 | 3 | 310 | 0.0 | 3.2 | 0.00 | 0.00 | 0.00 | 73 | 1008.4 |
| 20260506083456 | 3 | 311 | 0.0 | 0.0 | 0.00 | 0.00 | 0.00 | 74 | 1008.4 |
| 20260506082957 | 3 | 311 | 0.0 | 0.0 | 0.00 | 0.00 | 0.00 | 74 | 1008.4 |
| 20260506082457 | 3 | 302 | 0.0 | 0.0 | 0.00 | 0.00 | 0.00 | 74 | 1008.4 |
| 20260506081958 | 3 | 302 | 0.0 | 0.0 | 0.00 | 0.00 | 0.00 | 74 | 1008.4 |
| 20260506081457 | 3 | 302 | 0.0 | 1.6 | 0.00 | 0.00 | 0.00 | 74 | 1008.4 |
| 20260506080958 | 3 | 302 | 0.0 | 3.2 | 0.00 | 0.00 | 0.00 | 74 | 1008.6 |
| 20260506080457 | 3 | 302 | 1.6 | 3.2 | 0.00 | 0.00 | 0.00 | 74 | 1008.5 |
| 20260506073456 | 3 | 302 | 0.0 | 0.0 | 0.00 | 0.00 | 0.00 | 72 | 1008.6 |
| 20260506072957 | 3 | 302 | 0.0 | 0.0 | 0.00 | 0.00 | 0.00 | 72 | 1008.5 |
| 20260506072456 | 3 | 302 | 0.0 | 1.6 | 0.00 | 0.00 | 0.00 | 72 | 1008.5 |
| 20260506071956 | 3 | 302 | 0.0 | 1.6 | 0.00 | 0.00 | 0.00 | 71 | 1008.7 |
| 20260506071456 | 4 | 302 | 0.0 | 0.0 | 0.00 | 0.00 | 0.00 | 71 | 1008.6 |
| 20260506070957 | 4 | 302 | 0.0 | 0.0 | 0.00 | 0.00 | 0.00 | 71 | 1008.4 |
| 20260506070456 | 4 | 302 | 0.0 | 0.0 | 0.00 | 0.00 | 0.00 | 70 | 1008.5 |
| 20260506062457 | 5 | 302 | 0.0 | 1.6 | 0.00 | 0.00 | 0.00 | 69 | 1008.8 |
| 20260506061956 | 5 | 302 | 0.0 | 1.6 | 0.00 | 0.00 | 0.00 | 69 | 1008.7 |
| 20260506061456 | 5 | 302 | 0.0 | 1.6 | 0.00 | 0.00 | 0.00 | 69 | 1008.7 |
| 20260506060957 | 5 | 295 | 0.0 | 1.6 | 0.00 | 0.00 | 0.00 | 69 | 1008.8 |
| 20260506060456 | 5 | 295 | 0.0 | 0.0 | 0.00 | 0.00 | 0.00 | 69 | 1008.8 |
| 20260506050956 | 5 | 266 | 0.0 | 3.2 | 0.00 | 0.00 | 0.00 | 67 | 1008.6 |
| 20260506050456 | 6 | 262 | 0.0 | 3.2 | 0.00 | 0.00 | 0.00 | 66 | 1008.8 |
| 20260506044957 | 6 | 313 | 1.6 | 6.4 | 0.00 | 0.00 | 0.00 | 66 | 1008.4 |
| 20260506044457 | 6 | 340 | 1.6 | 6.4 | 0.00 | 0.00 | 0.00 | 65 | 1008.2 |
| 20260506043957 | 6 | 299 | 1.6 | 3.2 | 0.00 | 0.00 | 0.00 | 66 | 1008.1 |
| 20260506043458 | 6 | 302 | 0.0 | 1.6 | 0.00 | 0.00 | 0.00 | 66 | 1008.2 |
| 20260506042957 | 6 | 299 | 0.0 | 3.2 | 0.00 | 0.00 | 0.00 | 65 | 1008.1 |
| 20260506042457 | 6 | 299 | 0.0 | 3.2 | 0.00 | 0.00 | 0.00 | 66 | 1008.1 |
| 20260506041957 | 6 | 297 | 1.6 | 4.8 | 0.00 | 0.00 | 0.00 | 66 | 1008.3 |
| 20260506041457 | 6 | 288 | 1.6 | 4.8 | 0.00 | 0.00 | 0.00 | 65 | 1008.3 |
| 20260506040957 | 6 | 292 | 0.0 | 3.2 | 0.00 | 0.00 | 0.00 | 65 | 1008.3 |
| 20260506040458 | 6 | 266 | 0.0 | 4.8 | 0.00 | 0.00 | 0.00 | 65 | 1008.3 |
| 20260506035958 | 6 | 266 | 1.6 | 4.8 | 0.00 | 0.00 | 0.00 | 65 | 1008.1 |
| 20260506035457 | 6 | 271 | 0.0 | 3.2 | 0.00 | 0.00 | 0.00 | 65 | 1008.1 |
| 20260506034957 | 6 | 271 | 0.0 | 3.2 | 0.00 | 0.00 | 0.00 | 64 | 1008.1 |
| 20260506034458 | 6 | 326 | 0.0 | 4.8 | 0.00 | 0.00 | 0.00 | 64 | 1007.8 |
| 20260506033957 | 6 | 315 | 0.0 | 0.0 | 0.00 | 0.00 | 0.00 | 64 | 1007.9 |
| 20260506033457 | 6 | 315 | 0.0 | 0.0 | 0.00 | 0.00 | 0.00 | 63 | 1008.0 |
| 20260506032957 | 6 | 315 | 0.0 | 1.6 | 0.00 | 0.00 | 0.00 | 63 | 1008.1 |
| 20260506032457 | 6 | 315 | 0.0 | 3.2 | 0.00 | 0.00 | 0.00 | 63 | 1008.3 |
| 20260506031957 | 6 | 317 | 0.0 | 3.2 | 0.00 | 0.00 | 0.00 | 62 | 1008.2 |
| 20260506031457 | 6 | 311 | 0.0 | 1.6 | 0.00 | 0.00 | 0.00 | 61 | 1008.3 |
| 20260506030958 | 6 | 311 | 0.0 | 1.6 | 0.00 | 0.00 | 0.00 | 61 | 1008.4 |
| 20260506030458 | 7 | 311 | 0.0 | 3.2 | 0.00 | 0.00 | 0.00 | 60 | 1008.1 |
| 20260506025957 | 7 | 311 | 0.0 | 3.2 | 0.00 | 0.00 | 0.00 | 60 | 1008.1 |
| 20260506025458 | 7 | 307 | 0.0 | 0.0 | 0.00 | 0.00 | 0.00 | 60 | 1007.9 |
| 20260506024957 | 7 | 307 | 0.0 | 0.0 | 0.00 | 0.00 | 0.00 | 59 | 1008.0 |
| 20260506024457 | 7 | 307 | 0.0 | 0.0 | 0.00 | 0.00 | 0.00 | 59 | 1008.0 |
| 20260506023957 | 7 | 307 | 0.0 | 1.6 | 0.00 | 0.00 | 0.00 | 58 | 1007.9 |
| 20260506023457 | 7 | 307 | 0.0 | 1.6 | 0.00 | 0.00 | 0.00 | 58 | 1007.8 |
| 20260506022957 | 7 | 300 | 0.0 | 3.2 | 0.00 | 0.00 | 0.00 | 57 | 1007.7 |
| 20260506022457 | 7 | 300 | 0.0 | 3.2 | 0.00 | 0.00 | 0.00 | 57 | 1007.9 |
| 20260506021957 | 7 | 300 | 0.0 | 4.8 | 0.00 | 0.00 | 0.00 | 57 | 1007.7 |
| 20260506021458 | 8 | 300 | 0.0 | 4.8 | 0.00 | 0.00 | 0.00 | 56 | 1007.6 |
| 20260506020957 | 8 | 296 | 0.0 | 4.8 | 0.00 | 0.00 | 0.00 | 56 | 1007.7 |
| 20260506020500 | 8 | 266 | 1.6 | 4.8 | 0.00 | 0.00 | 0.00 | 55 | 1007.6 |
| 20260506020000 | 8 | 308 | 1.6 | 4.8 | 0.00 | 0.00 | 0.00 | 55 | 1007.4 |
| 20260506015459 | 8 | 320 | 1.6 | 4.8 | 0.00 | 0.00 | 0.00 | 55 | 1007.3 |
| 20260506014959 | 8 | 271 | 1.6 | 4.8 | 0.00 | 0.00 | 0.00 | 55 | 1007.3 |
| 20260506014458 | 8 | 298 | 1.6 | 4.8 | 0.00 | 0.00 | 0.00 | 55 | 1007.3 |
| 20260506013958 | 8 | 304 | 0.0 | 4.8 | 0.00 | 0.00 | 0.00 | 54 | 1007.2 |
| 20260506013458 | 8 | 319 | 0.0 | 4.8 | 0.00 | 0.00 | 0.00 | 54 | 1007.2 |
| 20260506012958 | 8 | 298 | 3.2 | 4.8 | 0.00 | 0.00 | 0.00 | 54 | 1007.1 |
| 20260506012458 | 8 | 309 | 1.6 | 6.4 | 0.00 | 0.00 | 0.00 | 54 | 1007.1 |
| 20260506011958 | 9 | 324 | 1.6 | 6.4 | 0.00 | 0.00 | 0.00 | 54 | 1007.1 |
| 20260506011457 | 9 | 289 | 3.2 | 8.0 | 0.00 | 0.00 | 0.00 | 53 | 1007.1 |
| 20260506011000 | 9 | 322 | 3.2 | 8.0 | 0.00 | 0.00 | 0.00 | 53 | 1007.1 |
| 20260506010458 | 9 | 299 | 3.2 | 6.4 | 0.00 | 0.00 | 0.00 | 53 | 1006.9 |
| 20260506010001 | 9 | 322 | 1.6 | 6.4 | 0.00 | 0.00 | 0.00 | 53 | 1006.8 |
| 20260506005458 | 9 | 290 | 1.6 | 8.0 | 0.00 | 0.00 | 0.00 | 52 | 1006.7 |
| 20260506004958 | 10 | 251 | 1.6 | 8.0 | 0.00 | 0.00 | 0.00 | 52 | 1006.7 |
| 20260506004458 | 10 | 321 | 1.6 | 6.4 | 0.00 | 0.00 | 0.00 | 52 | 1006.7 |
| 20260506004000 | 10 | 289 | 1.6 | 6.4 | 0.00 | 0.00 | 0.00 | 52 | 1006.8 |
| 20260506003459 | 10 | 257 | 1.6 | 6.4 | 0.00 | 0.00 | 0.00 | 52 | 1006.7 |
| 20260506002959 | 10 | 290 | 3.2 | 6.4 | 0.00 | 0.00 | 0.00 | 51 | 1006.8 |
| 20260506002459 | 10 | 294 | 1.6 | 8.0 | 0.00 | 0.00 | 0.00 | 51 | 1006.8 |
| 20260506001958 | 10 | 318 | 4.8 | 6.4 | 0.00 | 0.00 | 0.00 | 51 | 1006.8 |
| 20260506001458 | 10 | 282 | 3.2 | 8.0 | 0.00 | 0.00 | 0.00 | 51 | 1006.7 |
| 20260506000958 | 10 | 266 | 1.6 | 6.4 | 0.00 | 0.00 | 0.00 | 52 | 1006.7 |
| 20260506000458 | 10 | 271 | 3.2 | 6.4 | 0.00 | 0.00 | 0.00 | 51 | 1006.6 |
| 20260505235958 | 10 | 306 | 3.2 | 8.0 | 0.00 | 0.00 | 0.00 | 51 | 1006.6 |
| 20260505235457 | 10 | 305 | 3.2 | 8.0 | 0.00 | 0.00 | 0.00 | 51 | 1006.7 |
| 20260505224957 | 11 | 305 | 3.2 | 9.7 | 0.00 | 0.00 | 0.00 | 47 | 1006.5 |
| 20260505224457 | 11 | 315 | 3.2 | 14.5 | 0.00 | 0.00 | 0.00 | 46 | 1006.4 |
| 20260505223956 | 11 | 308 | 4.8 | 14.5 | 0.00 | 0.00 | 0.00 | 46 | 1006.5 |
| 20260505223458 | 11 | 313 | 4.8 | 16.1 | 0.00 | 0.00 | 0.00 | 47 | 1006.6 |
| 20260505222958 | 11 | 285 | 4.8 | 16.1 | 0.00 | 0.00 | 0.00 | 45 | 1006.4 |
| 20260505222457 | 11 | 326 | 6.4 | 16.1 | 0.00 | 0.00 | 0.00 | 46 | 1006.6 |
| 20260505221957 | 11 | 307 | 4.8 | 16.1 | 0.00 | 0.00 | 0.00 | 46 | 1006.4 |
| 20260505221457 | 11 | 349 | 8.0 | 16.1 | 0.00 | 0.00 | 0.00 | 45 | 1006.4 |
| 20260505220957 | 11 | 305 | 6.4 | 17.7 | 0.00 | 0.00 | 0.00 | 45 | 1006.4 |
| 20260505220456 | 11 | 311 | 6.4 | 19.3 | 0.00 | 0.00 | 0.00 | 46 | 1006.4 |
| 20260505215957 | 11 | 341 | 6.4 | 20.9 | 0.00 | 0.00 | 0.00 | 46 | 1006.4 |
| 20260505215457 | 11 | 261 | 8.0 | 20.9 | 0.00 | 0.00 | 0.00 | 44 | 1006.5 |
| 20260505214957 | 11 | 289 | 4.8 | 17.7 | 0.00 | 0.00 | 0.00 | 45 | 1006.6 |
| 20260505214457 | 11 | 249 | 4.8 | 22.5 | 0.00 | 0.00 | 0.00 | 46 | 1006.6 |
| 20260505213957 | 11 | 316 | 6.4 | 24.1 | 0.00 | 0.00 | 0.00 | 44 | 1006.6 |
| 20260505213458 | 12 | 328 | 8.0 | 19.3 | 0.00 | 0.00 | 0.00 | 46 | 1006.6 |
| 20260505212957 | 11 | 292 | 8.0 | 17.7 | 0.00 | 0.00 | 0.00 | 43 | 1006.4 |
| 20260505212456 | 12 | 339 | 6.4 | 24.1 | 0.00 | 0.00 | 0.00 | 44 | 1006.4 |
| 20260505211958 | 12 | 271 | 9.7 | 24.1 | 0.00 | 0.00 | 0.00 | 45 | 1006.5 |
| 20260505211457 | 12 | 336 | 6.4 | 19.3 | 0.00 | 0.00 | 0.00 | 47 | 1006.5 |
| 20260505210958 | 12 | 345 | 11.3 | 19.3 | 0.00 | 0.00 | 0.00 | 45 | 1006.5 |
| 20260505210457 | 12 | 321 | 4.8 | 17.7 | 0.00 | 0.00 | 0.00 | 46 | 1006.6 |
| 20260505205958 | 12 | 271 | 8.0 | 17.7 | 0.00 | 0.00 | 0.00 | 45 | 1006.4 |
| 20260505205457 | 12 | 276 | 8.0 | 22.5 | 0.00 | 0.00 | 0.00 | 44 | 1006.5 |
| 20260505204956 | 12 | 311 | 4.8 | 25.7 | 0.00 | 0.00 | 0.00 | 46 | 1006.6 |
| 20260505204457 | 12 | 337 | 11.3 | 25.7 | 0.00 | 0.00 | 0.00 | 44 | 1006.5 |
| 20260505203957 | 12 | 332 | 6.4 | 19.3 | 0.00 | 0.00 | 0.00 | 46 | 1006.6 |
| 20260505203457 | 12 | 305 | 4.8 | 16.1 | 0.00 | 0.00 | 0.00 | 47 | 1006.6 |
| 20260505202957 | 12 | 288 | 6.4 | 17.7 | 0.00 | 0.00 | 0.00 | 46 | 1006.7 |
| 20260505202457 | 12 | 205 | 6.4 | 14.5 | 0.00 | 0.00 | 0.00 | 47 | 1006.7 |
| 20260505201958 | 12 | 238 | 6.4 | 14.5 | 0.00 | 0.00 | 0.00 | 45 | 1006.8 |
| 20260505201458 | 12 | 307 | 4.8 | 24.1 | 0.00 | 0.00 | 0.00 | 46 | 1006.7 |
| 20260505200957 | 12 | 304 | 8.0 | 24.1 | 0.00 | 0.00 | 0.00 | 46 | 1006.8 |
| 20260505200457 | 12 | 302 | 8.0 | 19.3 | 0.00 | 0.00 | 0.00 | 45 | 1006.6 |
| 20260505195957 | 12 | 293 | 8.0 | 22.5 | 0.00 | 0.00 | 0.00 | 42 | 1006.6 |
| 20260505195456 | 12 | 336 | 9.7 | 22.5 | 0.00 | 0.00 | 0.00 | 42 | 1006.5 |
| 20260505194957 | 13 | 305 | 8.0 | 16.1 | 0.00 | 0.00 | 0.00 | 45 | 1006.5 |
| 20260505194457 | 12 | 287 | 6.4 | 17.7 | 0.00 | 0.00 | 0.00 | 44 | 1006.6 |
| 20260505190957 | 13 | 231 | 6.4 | 27.4 | 0.00 | 0.00 | 0.00 | 41 | 1006.3 |
| 20260505190456 | 13 | 234 | 9.7 | 27.4 | 0.00 | 0.00 | 0.00 | 44 | 1006.2 |
| 20260505185957 | 12 | 333 | 12.9 | 22.5 | 0.00 | 0.00 | 0.00 | 40 | 1006.2 |
| 20260505185457 | 12 | 226 | 11.3 | 25.7 | 0.00 | 0.00 | 0.00 | 42 | 1006.2 |
| 20260505184957 | 12 | 229 | 11.3 | 25.7 | 0.00 | 0.00 | 0.00 | 40 | 1006.0 |
| 20260505184457 | 13 | 322 | 8.0 | 20.9 | 0.00 | 0.00 | 0.00 | 42 | 1006.1 |
| 20260505183957 | 13 | 315 | 8.0 | 24.1 | 0.00 | 0.00 | 0.00 | 41 | 1005.9 |
| 20260505183457 | 13 | 249 | 11.3 | 24.1 | 0.00 | 0.00 | 0.00 | 39 | 1005.8 |
| 20260505182957 | 13 | 245 | 11.3 | 24.1 | 0.00 | 0.00 | 0.00 | 38 | 1006.0 |
| 20260505182457 | 13 | 235 | 6.4 | 20.9 | 0.00 | 0.00 | 0.00 | 42 | 1006.0 |
| 20260505181957 | 13 | 307 | 6.4 | 25.7 | 0.00 | 0.00 | 0.00 | 45 | 1006.1 |
| 20260505181457 | 13 | 228 | 8.0 | 25.7 | 0.00 | 0.00 | 0.00 | 39 | 1006.1 |
| 20260505180957 | 14 | 286 | 9.7 | 24.1 | 0.00 | 0.00 | 0.00 | 39 | 1006.0 |
| 20260505180457 | 13 | 238 | 8.0 | 24.1 | 0.00 | 0.00 | 0.00 | 39 | 1005.8 |
| 20260505175957 | 13 | 276 | 11.3 | 22.5 | 0.00 | 0.00 | 0.00 | 39 | 1005.7 |
| 20260505175457 | 13 | 228 | 8.0 | 20.9 | 0.00 | 0.00 | 0.00 | 39 | 1005.7 |
| 20260505174957 | 14 | 320 | 8.0 | 20.9 | 0.00 | 0.00 | 0.00 | 39 | 1005.5 |
| 20260505174456 | 14 | 220 | 4.8 | 16.1 | 0.00 | 0.00 | 0.00 | 41 | 1005.4 |
| 20260505173956 | 14 | 325 | 3.2 | 14.5 | 0.00 | 0.00 | 0.00 | 44 | 1005.3 |
| 20260505173457 | 13 | 230 | 8.0 | 17.7 | 0.00 | 0.00 | 0.00 | 42 | 1005.3 |
| 20260505172956 | 13 | 354 | 6.4 | 17.7 | 0.00 | 0.00 | 0.00 | 38 | 1005.3 |
| 20260505172457 | 13 | 342 | 8.0 | 17.7 | 0.00 | 0.00 | 0.00 | 36 | 1005.3 |
| 20260505171957 | 14 | 330 | 6.4 | 16.1 | 0.00 | 0.00 | 0.00 | 37 | 1005.3 |
| 20260505171456 | 14 | 209 | 6.4 | 16.1 | 0.00 | 0.00 | 0.00 | 41 | 1005.3 |
| 20260505170957 | 14 | 229 | 8.0 | 16.1 | 0.00 | 0.00 | 0.00 | 35 | 1005.4 |
| 20260505170457 | 14 | 188 | 4.8 | 19.3 | 0.00 | 0.00 | 0.00 | 38 | 1005.3 |
| 20260505165458 | 14 | 293 | 8.0 | 14.5 | 0.00 | 0.00 | 0.00 | 39 | 1005.4 |
| 20260505164958 | 13 | 317 | 9.7 | 14.5 | 0.00 | 0.00 | 0.00 | 37 | 1005.3 |
| 20260505164458 | 13 | 291 | 4.8 | 17.7 | 0.00 | 0.00 | 0.00 | 39 | 1005.2 |
| 20260505163958 | 13 | 255 | 8.0 | 24.1 | 0.00 | 0.00 | 0.00 | 39 | 1005.2 |
| 20260505163459 | 13 | 310 | 6.4 | 24.1 | 0.00 | 0.00 | 0.00 | 41 | 1005.4 |
| 20260505162958 | 13 | 271 | 9.7 | 20.9 | 0.00 | 0.00 | 0.00 | 39 | 1005.4 |
| 20260505151959 | 12 | 271 | 4.8 | 17.7 | 0.00 | 0.00 | 0.00 | 53 | 1005.9 |
| 20260505151457 | 11 | 224 | 6.4 | 14.5 | 0.00 | 0.00 | 0.00 | 54 | 1006.1 |